| time (UTC) | temp F | wind direction | speed knots | gust knots | rain 1hr in | rain 24hr in | rain mn in | humidity % | barometer mb |
| 20260510090034 | 42 | 18 | 0.0 | 0.0 | 0.00 | 0.00 | 0.00 | 72 | 1015.9 |
| 20260510084535 | 44 | 17 | 0.0 | 0.0 | 0.00 | 0.00 | 0.00 | 67 | 1015.7 |
| 20260510083028 | 45 | 19 | 0.0 | 1.7 | 0.00 | 0.00 | 0.00 | 64 | 1015.5 |
| 20260510081525 | 46 | 359 | 0.0 | 1.7 | 0.00 | 0.00 | 0.00 | 63 | 1015.2 |
| 20260510080023 | 46 | 1 | 0.9 | 3.5 | 0.00 | 0.00 | 0.00 | 61 | 1015.0 |
| 20260510074521 | 47 | 8 | 0.0 | 4.3 | 0.00 | 0.00 | 0.00 | 60 | 1014.7 |
| 20260510073019 | 48 | 360 | 1.7 | 7.0 | 0.00 | 0.00 | 0.00 | 59 | 1014.6 |
| 20260510071519 | 48 | 345 | 1.7 | 4.3 | 0.00 | 0.00 | 0.00 | 62 | 1014.3 |
| 20260510070016 | 48 | 360 | 0.9 | 5.2 | 0.00 | 0.00 | 0.00 | 67 | 1014.1 |
| 20260510064525 | 47 | 3 | 0.9 | 4.3 | 0.00 | 0.00 | 0.00 | 71 | 1013.7 |
| 20260510063008 | 43 | 358 | 0.0 | 1.7 | 0.00 | 0.00 | 0.00 | 83 | 1013.5 |
| 20260510061509 | 43 | 105 | 0.0 | 0.0 | 0.00 | 0.00 | 0.00 | 82 | 1013.2 |
| 20260510060059 | 44 | 106 | 0.0 | 0.0 | 0.00 | 0.00 | 0.00 | 80 | 1013.1 |
| 20260510054558 | 44 | 79 | 0.0 | 0.0 | 0.00 | 0.00 | 0.00 | 80 | 1013.0 |
| 20260510053054 | 45 | 78 | 0.0 | 0.0 | 0.00 | 0.00 | 0.00 | 77 | 1012.8 |
| 20260510051555 | 45 | 77 | 0.0 | 0.0 | 0.00 | 0.00 | 0.00 | 76 | 1012.6 |
| 20260510050050 | 46 | 79 | 0.0 | 0.0 | 0.00 | 0.00 | 0.00 | 74 | 1012.4 |
| 20260510044545 | 47 | 79 | 0.0 | 0.0 | 0.00 | 0.00 | 0.00 | 71 | 1012.1 |
| 20260510043042 | 48 | 79 | 0.0 | 0.0 | 0.00 | 0.00 | 0.00 | 68 | 1011.8 |
| 20260510041537 | 49 | 80 | 0.0 | 0.0 | 0.00 | 0.00 | 0.00 | 65 | 1011.4 |
| 20260510040037 | 49 | 81 | 0.0 | 0.0 | 0.00 | 0.00 | 0.00 | 63 | 1011.2 |
| 20260510034533 | 50 | 79 | 0.0 | 0.9 | 0.00 | 0.00 | 0.00 | 60 | 1011.1 |
| 20260510033036 | 51 | 74 | 0.0 | 0.0 | 0.00 | 0.00 | 0.00 | 59 | 1011.0 |
| 20260510031531 | 53 | 72 | 0.0 | 1.7 | 0.00 | 0.00 | 0.00 | 57 | 1010.9 |
| 20260510030028 | 53 | 35 | 0.0 | 0.9 | 0.00 | 0.00 | 0.00 | 57 | 1010.7 |
| 20260510024527 | 54 | 354 | 0.0 | 0.0 | 0.00 | 0.00 | 0.00 | 55 | 1010.4 |
| 20260510023024 | 55 | 354 | 0.0 | 0.0 | 0.00 | 0.00 | 0.00 | 53 | 1010.1 |
| 20260510021525 | 57 | 36 | 0.0 | 4.3 | 0.00 | 0.00 | 0.00 | 49 | 1009.6 |
| 20260510020017 | 59 | 11 | 0.0 | 2.6 | 0.00 | 0.00 | 0.00 | 46 | 1009.2 |
| 20260510014514 | 62 | 19 | 1.7 | 5.2 | 0.00 | 0.00 | 0.00 | 40 | 1008.7 |
| 20260510013011 | 63 | 322 | 0.9 | 5.2 | 0.00 | 0.00 | 0.00 | 37 | 1008.3 |
| 20260510011509 | 64 | 8 | 0.0 | 3.5 | 0.00 | 0.00 | 0.00 | 37 | 1007.9 |
| 20260510010006 | 65 | 331 | 0.9 | 7.0 | 0.00 | 0.00 | 0.00 | 37 | 1007.5 |
| 20260510004503 | 66 | 326 | 1.7 | 7.8 | 0.00 | 0.00 | 0.00 | 37 | 1007.2 |
| 20260510003107 | 67 | 335 | 0.9 | 7.0 | 0.00 | 0.00 | 0.00 | 37 | 1006.9 |
| 20260510001602 | 67 | 302 | 0.0 | 5.2 | 0.00 | 0.00 | 0.00 | 36 | 1006.6 |
| 20260510000057 | 68 | 188 | 0.9 | 3.5 | 0.00 | 0.00 | 0.00 | 34 | 1006.2 |
| 20260509234611 | 69 | 319 | 0.9 | 7.0 | 0.00 | 0.00 | 0.00 | 34 | 1006.1 |
| 20260509233054 | 71 | 255 | 1.7 | 4.3 | 0.00 | 0.00 | 0.00 | 34 | 1005.9 |
| 20260509231601 | 72 | 259 | 0.9 | 5.2 | 0.00 | 0.00 | 0.00 | 32 | 1005.7 |
| 20260509230059 | 72 | 259 | 2.6 | 8.7 | 0.00 | 0.00 | 0.00 | 33 | 1005.5 |
| 20260509224559 | 72 | 257 | 1.7 | 6.1 | 0.00 | 0.00 | 0.00 | 32 | 1005.3 |
| 20260509223059 | 72 | 12 | 1.7 | 8.7 | 0.00 | 0.00 | 0.00 | 32 | 1005.1 |
| 20260509221552 | 72 | 327 | 2.6 | 10.4 | 0.00 | 0.00 | 0.00 | 30 | 1005.0 |
| 20260509220050 | 73 | 196 | 2.6 | 8.7 | 0.00 | 0.00 | 0.00 | 28 | 1004.9 |
| 20260509214549 | 73 | 198 | 2.6 | 7.8 | 0.00 | 0.00 | 0.00 | 29 | 1004.6 |
| 20260509213049 | 74 | 304 | 1.7 | 10.4 | 0.00 | 0.00 | 0.00 | 31 | 1004.4 |
| 20260509211548 | 74 | 221 | 2.6 | 15.6 | 0.00 | 0.00 | 0.00 | 29 | 1004.4 |
| 20260509210057 | 75 | 165 | 3.5 | 11.3 | 0.00 | 0.00 | 0.00 | 27 | 1004.2 |
| 20260509204547 | 75 | 269 | 1.7 | 5.2 | 0.00 | 0.00 | 0.00 | 28 | 1003.9 |
| 20260509203055 | 75 | 145 | 2.6 | 8.7 | 0.00 | 0.00 | 0.00 | 29 | 1004.1 |
| 20260509201546 | 75 | 198 | 1.7 | 11.3 | 0.00 | 0.00 | 0.00 | 31 | 1004.0 |
| 20260509200043 | 74 | 236 | 2.6 | 9.6 | 0.00 | 0.00 | 0.00 | 29 | 1004.0 |
| 20260509194542 | 73 | 280 | 3.5 | 7.8 | 0.00 | 0.00 | 0.00 | 31 | 1004.3 |
| 20260509193041 | 71 | 37 | 3.5 | 10.4 | 0.00 | 0.00 | 0.00 | 31 | 1004.3 |
| 20260509191544 | 72 | 215 | 2.6 | 12.2 | 0.00 | 0.00 | 0.00 | 31 | 1004.4 |
| 20260509190041 | 72 | 174 | 4.3 | 11.3 | 0.00 | 0.00 | 0.00 | 30 | 1004.2 |
| 20260509184546 | 73 | 274 | 0.9 | 9.6 | 0.00 | 0.00 | 0.00 | 31 | 1004.1 |
| 20260509183039 | 73 | 153 | 2.6 | 9.6 | 0.00 | 0.00 | 0.00 | 32 | 1004.1 |
| 20260509181540 | 73 | 41 | 1.7 | 6.1 | 0.00 | 0.00 | 0.00 | 32 | 1004.1 |
| 20260509180105 | 72 | 108 | 1.7 | 9.6 | 0.00 | 0.00 | 0.00 | 31 | 1004.2 |
| 20260509174535 | 72 | 14 | 0.0 | 4.3 | 0.00 | 0.00 | 0.00 | 34 | 1004.3 |
| 20260509173041 | 72 | 236 | 1.7 | 7.8 | 0.00 | 0.00 | 0.00 | 31 | 1004.3 |
| 20260509171541 | 72 | 284 | 1.7 | 10.4 | 0.00 | 0.00 | 0.00 | 33 | 1004.5 |
| 20260509170046 | 72 | 36 | 1.7 | 7.0 | 0.00 | 0.00 | 0.00 | 36 | 1004.5 |
| 20260509164529 | 72 | 139 | 1.7 | 8.7 | 0.00 | 0.00 | 0.00 | 39 | 1004.4 |
| 20260509163027 | 69 | 179 | 1.7 | 7.0 | 0.00 | 0.00 | 0.00 | 51 | 1004.4 |
| 20260509161521 | 68 | 110 | 1.7 | 5.2 | 0.00 | 0.00 | 0.00 | 54 | 1004.3 |
| 20260509160021 | 66 | 122 | 1.7 | 8.7 | 0.00 | 0.00 | 0.00 | 60 | 1004.5 |
| 20260509154518 | 66 | 136 | 2.6 | 6.1 | 0.00 | 0.00 | 0.00 | 62 | 1004.4 |
| 20260509153018 | 64 | 137 | 2.6 | 6.1 | 0.00 | 0.00 | 0.00 | 65 | 1004.6 |
| 20260509151509 | 63 | 163 | 1.7 | 7.8 | 0.00 | 0.00 | 0.00 | 68 | 1004.5 |
| 20260509150007 | 62 | 153 | 1.7 | 7.8 | 0.00 | 0.00 | 0.00 | 72 | 1004.6 |
| 20260509144503 | 61 | 135 | 2.6 | 6.1 | 0.00 | 0.00 | 0.00 | 73 | 1004.6 |
| 20260509143109 | 60 | 124 | 0.9 | 7.0 | 0.00 | 0.00 | 0.00 | 75 | 1004.6 |
| 20260509141556 | 59 | 166 | 1.7 | 7.8 | 0.00 | 0.00 | 0.00 | 77 | 1004.6 |
| 20260509140053 | 58 | 134 | 1.7 | 7.8 | 0.00 | 0.00 | 0.00 | 79 | 1004.5 |
| 20260509134551 | 57 | 191 | 0.9 | 7.8 | 0.00 | 0.00 | 0.00 | 82 | 1004.6 |
| 20260509133104 | 56 | 211 | 1.7 | 7.0 | 0.00 | 0.00 | 0.00 | 82 | 1004.2 |
| 20260509131544 | 56 | 217 | 1.7 | 7.8 | 0.00 | 0.00 | 0.00 | 84 | 1004.4 |
| 20260509130042 | 55 | 131 | 0.9 | 8.7 | 0.00 | 0.00 | 0.00 | 87 | 1004.5 |
| 20260509124540 | 54 | 244 | 2.6 | 7.0 | 0.00 | 0.00 | 0.00 | 88 | 1004.4 |
| 20260509123037 | 53 | 130 | 1.7 | 7.0 | 0.00 | 0.00 | 0.00 | 90 | 1004.5 |
| 20260509121539 | 52 | 181 | 1.7 | 5.2 | 0.00 | 0.00 | 0.00 | 92 | 1004.4 |
| 20260509120035 | 52 | 168 | 0.9 | 5.2 | 0.00 | 0.00 | 0.00 | 93 | 1004.4 |
| 20260509114536 | 50 | 150 | 0.9 | 3.5 | 0.00 | 0.00 | 0.00 | 94 | 1004.3 |
| 20260509113036 | 50 | 149 | 0.9 | 3.5 | 0.00 | 0.00 | 0.00 | 94 | 1004.1 |
| 20260509111533 | 50 | 165 | 0.0 | 2.6 | 0.00 | 0.00 | 0.00 | 93 | 1003.9 |
| 20260509110032 | 51 | 58 | 0.9 | 4.3 | 0.00 | 0.00 | 0.00 | 93 | 1003.9 |
| 20260509104541 | 51 | 141 | 1.7 | 3.5 | 0.00 | 0.00 | 0.00 | 93 | 1004.1 |
| 20260509103034 | 51 | 145 | 0.0 | 4.3 | 0.00 | 0.00 | 0.00 | 92 | 1003.7 |
| 20260509101536 | 51 | 113 | 0.9 | 5.2 | 0.00 | 0.00 | 0.00 | 94 | 1003.7 |
| 20260509100030 | 50 | 148 | 0.9 | 3.5 | 0.00 | 0.00 | 0.00 | 95 | 1003.8 |
| 20260509094533 | 50 | 132 | 0.9 | 4.3 | 0.00 | 0.00 | 0.00 | 96 | 1004.1 |
| 20260509093025 | 50 | 135 | 0.0 | 0.9 | 0.00 | 0.00 | 0.00 | 95 | 1004.2 |
| 20260509091525 | 50 | 139 | 0.0 | 1.7 | 0.00 | 0.00 | 0.00 | 95 | 1004.5 |